Wind_Speed
27 26 24 24 23 23 23 22 21 20 20 20 21 21 20 19 18 17 17 16 15 14 13 12 11 10 10 9 9 8 8 8 7 7 6 6 6 6 7 7 8 8 9 9 9 10 11 11 12 13 13 13 13 14 15 15 15 14 14 15 15 15 15 14 13 13 12 13 13 14 14 14 15 15 15 16 17 17 17 16 16 16 17 18 19
28 27 26 24 23 23 23 23 23 22 21 20 20 21 21 21 20 19 19 18 17 16 14 14 13 12 12 11 10 10 10 9 9 8 8 8 8 8 8 8 8 8 8 9 9 10 11 12 12 13 14 14 15 15 16 16 16 15 15 15 15 15 15 15 14 13 13 13 14 15 16 16 17 17 17 17 18 19 18 17 17 17 18 20 20
29 28 28 26 25 23 23 23 23 24 23 22 21 21 21 22 22 21 20 19 18 17 16 15 14 14 13 13 13 12 11 11 10 10 9 9 9 9 9 9 9 9 9 9 9 10 11 12 13 14 14 16 16 17 17 17 16 16 16 15 15 15 15 15 15 14 13 13 14 16 16 17 18 19 19 20 20 21 20 18 17 18 20 21 21
29 29 29 28 27 26 24 23 23 24 24 24 23 22 22 22 23 23 22 21 20 19 18 17 16 15 14 14 14 13 13 13 12 11 11 11 11 11 11 10 10 10 11 11 11 11 12 13 14 14 15 16 17 18 17 17 17 17 17 16 16 16 16 16 16 16 15 14 14 15 17 17 19 20 21 21 22 23 22 21 19 20 21 22 22
26 28 28 28 28 28 26 25 24 23 23 23 23 23 23 23 23 23 23 23 22 21 20 19 18 16 15 14 14 14 14 15 15 14 14 13 13 13 13 12 12 12 12 12 12 12 13 14 15 15 16 17 18 18 18 18 18 18 17 17 17 17 17 17 18 18 18 17 17 16 17 18 19 21 22 23 23 24 24 24 22 22 23 23 23
24 26 27 28 29 29 28 27 26 24 24 23 23 23 24 24 24 24 24 24 23 23 22 21 19 18 17 16 16 16 15 16 16 16 16 16 15 15 14 14 14 14 14 14 14 14 14 15 15 16 16 18 19 19 19 19 19 18 18 18 18 18 18 19 19 20 20 20 20 19 19 20 20 21 23 25 25 25 25 25 25 24 24 25 25
23 24 25 27 28 29 28 28 27 26 25 24 24 24 24 24 25 25 25 25 25 25 24 23 22 20 19 19 18 17 17 17 17 18 18 18 17 17 16 16 16 16 16 15 15 15 16 16 17 17 17 18 19 19 19 19 19 19 19 19 19 19 20 20 21 21 22 22 22 21 21 21 22 23 24 26 27 27 27 26 26 25 25 26 27
23 23 24 26 27 28 28 28 27 27 27 26 26 25 25 25 25 25 26 26 27 27 26 25 24 24 23 21 20 20 20 20 19 19 19 20 19 19 18 18 18 18 18 18 18 17 17 18 18 18 18 18 19 20 20 20 20 20 19 20 20 21 21 22 22 23 23 24 23 23 23 23 23 24 25 26 28 29 28 28 27 26 25 26 26
23 23 24 25 25 26 26 27 28 28 28 27 27 27 27 27 27 27 26 27 27 28 27 27 27 26 26 25 24 23 22 21 21 20 20 20 21 21 20 20 20 20 20 20 20 20 19 20 20 19 20 20 20 21 21 21 21 21 21 21 22 23 23 23 24 24 25 25 25 25 25 25 25 25 26 27 29 30 30 29 28 27 26 26 26
23 24 25 24 23 24 25 26 27 28 28 28 28 28 28 28 29 28 28 28 28 27 27 28 28 27 27 27 26 26 24 23 21 21 21 21 22 22 23 22 22 22 22 22 22 22 22 21 21 21 22 22 23 23 23 23 23 22 22 23 24 24 25 25 26 26 26 27 26 26 27 26 26 27 27 28 29 30 30 30 29 28 27 26 25
22 24 25 23 23 23 24 25 26 27 28 29 29 29 29 29 29 29 29 29 29 29 28 28 28 28 27 27 27 28 26 24 23 23 23 23 23 24 24 24 24 24 24 24 23 23 23 23 23 23 23 24 24 24 24 25 25 25 25 25 26 26 27 27 27 27 28 28 28 28 28 28 28 28 27 28 29 30 30 29 28 27 26 25 25
23 23 23 23 23 24 24 24 25 27 28 29 29 30 30 30 30 30 30 30 30 30 30 30 29 29 29 28 28 28 27 26 25 25 24 24 25 25 25 25 26 26 26 25 25 25 25 25 25 25 25 25 25 26 26 26 27 27 27 27 28 28 29 29 29 29 29 30 29 29 28 28 28 27 26 27 28 28 28 27 26 25 25 25 25
26 24 23 23 23 23 23 24 25 26 28 29 30 30 31 31 31 30 30 30 31 31 31 31 31 31 31 30 28 28 28 27 26 26 26 26 26 27 27 27 27 27 27 26 26 26 26 26 27 27 26 26 26 27 27 27 27 28 28 29 29 29 30 30 30 30 30 30 30 28 27 26 26 24 24 25 25 26 26 26 25 24 24 24 25
29 27 25 23 23 23 23 24 24 25 27 29 30 31 32 32 31 31 31 31 31 31 31 31 31 32 32 31 30 30 28 27 27 27 27 26 27 27 28 28 28 28 28 27 27 27 27 27 28 27 27 27 28 27 27 28 28 29 29 30 30 30 30 30 30 29 29 29 29 26 24 24 23 22 22 24 24 24 25 25 25 25 24 24 24
31 30 27 25 24 24 24 24 25 25 26 28 30 32 33 33 33 32 32 31 31 31 30 30 30 30 31 31 32 31 29 27 27 27 27 27 27 28 29 29 29 29 28 28 28 28 27 28 28 28 28 28 28 28 28 28 28 29 29 29 29 29 29 29 27 27 27 27 26 24 22 22 22 22 22 23 23 23 24 25 25 25 24 24 23
33 32 30 28 27 26 25 25 26 26 27 28 30 32 34 34 34 33 32 31 30 30 30 29 29 29 30 30 31 30 28 27 28 27 27 27 28 29 30 30 30 30 29 29 29 29 29 29 29 29 28 28 28 27 28 28 29 29 29 28 28 27 27 26 24 24 25 25 25 24 23 23 23 23 22 23 24 24 25 25 24 24 25 25 24
34 34 32 30 28 28 28 27 26 27 28 30 31 32 33 34 34 34 33 31 30 28 28 28 28 28 29 30 30 29 28 28 28 28 28 28 30 30 30 31 31 31 31 30 30 30 30 30 30 29 29 29 28 27 28 29 29 29 28 27 27 26 25 23 23 23 24 25 25 25 24 24 24 24 24 24 25 25 25 24 24 25 26 26 25
34 34 34 32 30 29 29 28 27 26 28 31 32 32 33 33 34 34 33 32 30 29 28 28 28 28 28 28 28 29 28 28 29 29 29 30 31 31 31 32 33 33 32 32 31 31 31 30 30 30 30 29 27 27 28 29 29 29 28 27 26 26 24 23 22 23 24 26 27 27 27 26 26 26 26 26 26 26 26 25 24 26 26 26 26
35 35 35 34 33 31 30 30 28 26 27 30 32 32 32 32 32 33 33 32 31 29 28 28 27 27 27 27 27 27 27 27 29 30 30 31 32 32 32 33 34 34 33 33 33 32 32 31 31 31 30 28 28 28 28 28 29 29 29 28 27 26 24 23 24 25 26 28 29 29 29 28 28 28 27 27 27 27 26 25 25 27 27 27 27
34 35 36 36 36 34 31 31 30 28 27 28 31 32 32 31 32 32 32 31 30 29 28 27 26 26 26 26 26 25 25 26 27 29 30 31 32 32 32 33 34 33 33 33 34 34 33 32 31 31 30 29 28 28 28 28 29 29 30 30 28 25 24 26 27 27 29 30 30 31 30 29 29 28 27 27 27 26 26 26 26 27 28 28 28
32 34 35 36 37 36 34 33 32 30 28 29 31 32 31 32 33 32 31 30 30 29 29 29 28 28 26 25 25 24 24 25 26 28 29 30 31 32 33 33 32 32 32 33 34 34 34 33 32 31 30 30 29 30 30 29 29 30 31 30 28 27 27 29 29 29 31 31 31 31 31 30 29 28 28 27 27 27 27 27 27 29 30 29 28
26 29 33 35 36 36 36 35 35 34 32 32 33 33 33 33 33 32 31 31 30 30 31 31 30 29 28 27 26 25 24 24 25 27 28 29 30 31 32 32 31 31 32 32 33 33 33 32 32 31 31 31 31 31 31 31 31 31 31 30 29 29 30 31 32 31 31 31 31 31 30 29 28 28 28 28 27 28 29 29 29 31 31 30 29
17 21 27 32 35 37 38 39 39 38 37 36 36 36 35 34 32 31 31 30 30 30 30 31 30 29 28 27 26 25 25 25 25 26 27 28 30 30 31 31 31 32 32 32 31 31 30 30 30 30 31 31 31 31 32 33 34 33 32 31 31 32 33 34 34 33 32 31 30 30 29 28 27 27 27 27 28 29 30 30 31 32 32 31 30
14 16 22 28 34 37 38 40 41 41 41 41 40 37 36 34 33 32 32 31 30 30 30 30 29 28 26 25 24 24 24 25 25 26 26 27 28 29 30 31 32 32 32 31 30 30 30 29 28 29 30 30 31 32 33 34 34 34 33 33 33 35 36 36 35 34 34 32 31 30 28 27 27 26 26 27 28 30 32 32 32 33 32 32 32
15 17 22 26 31 35 37 39 41 42 42 41 39 36 34 33 32 32 32 32 31 30 30 29 28 26 24 21 20 20 21 23 24 25 26 27 28 29 30 31 32 32 32 32 32 32 31 31 30 31 31 30 31 33 34 34 34 33 33 34 35 37 38 37 36 36 35 34 32 30 28 27 27 27 27 28 30 31 32 32 33 33 33 33 33
15 16 20 24 27 32 36 40 41 41 40 39 37 35 32 30 30 30 30 30 30 29 29 27 26 25 23 20 19 20 21 21 23 25 26 28 28 29 30 31 31 32 32 32 32 33 33 33 33 32 31 32 33 34 34 35 35 35 35 36 37 37 38 38 38 38 37 35 33 31 29 28 29 29 29 30 31 32 32 33 34 34 34 34 34
17 15 17 21 25 29 33 37 38 39 41 41 39 36 34 31 29 29 29 28 27 27 28 28 26 24 22 21 20 20 20 20 22 24 26 27 28 29 29 30 31 31 32 32 32 33 33 33 33 33 34 35 36 36 35 36 37 37 37 38 38 38 38 39 40 40 40 38 35 32 31 30 30 30 30 30 32 33 34 35 35 36 36 35 35
23 18 15 18 23 27 30 34 33 32 35 39 40 38 37 34 30 28 27 25 25 26 27 28 27 24 22 22 22 22 21 20 21 23 25 26 27 28 28 29 30 31 31 31 31 32 32 33 33 35 36 37 38 38 37 37 38 37 38 38 39 39 39 40 41 42 42 41 38 35 34 32 31 31 32 33 33 34 35 36 37 37 37 37 36
27 22 17 15 19 22 26 30 31 28 27 31 36 37 36 33 30 27 26 25 24 26 28 28 27 25 25 25 24 24 22 20 20 22 25 26 26 27 28 29 30 31 31 31 31 32 34 35 35 36 36 37 38 39 39 39 39 38 38 38 39 40 40 41 42 42 43 42 41 38 37 35 33 32 33 35 36 36 36 37 38 38 38 38 37
29 27 22 17 16 19 20 23 28 28 25 24 28 31 32 30 29 28 27 26 25 26 27 27 26 26 26 25 25 24 21 19 20 23 25 27 27 29 30 31 32 33 34 35 36 37 38 38 37 37 37 38 38 39 39 40 40 39 39 39 39 40 40 41 42 42 43 43 42 41 40 38 36 34 34 36 38 37 37 37 38 38 39 38 37
32 31 28 21 15 16 19 18 20 24 27 27 25 26 27 27 28 28 28 27 27 26 26 26 26 26 26 25 24 23 21 20 20 22 23 26 28 30 31 33 34 35 36 37 39 39 39 40 40 39 38 39 39 40 40 41 41 40 40 40 40 40 40 41 41 42 42 43 43 43 42 41 39 37 36 37 38 38 37 38 38 39 39 38 37
35 34 33 26 17 15 19 20 16 17 22 27 30 30 28 27 28 29 28 28 27 26 26 26 26 26 25 24 24 23 21 21 21 21 21 23 26 29 31 33 34 35 36 38 39 38 39 40 41 41 40 40 40 41 42 42 42 42 41 41 41 40 40 39 39 40 42 43 44 44 44 43 41 39 37 37 37 37 38 39 39 37 37 37 37
35 36 36 33 23 15 17 21 18 14 16 23 31 36 35 30 28 29 29 29 28 26 26 26 25 25 24 24 23 23 22 22 23 23 22 21 23 26 30 33 35 36 37 37 37 36 37 39 41 42 42 42 42 43 43 43 44 43 43 43 42 41 40 39 39 40 42 44 44 45 45 44 42 40 38 38 37 37 38 40 39 37 36 36 36
33 36 38 38 31 20 17 20 21 18 18 21 27 34 36 32 28 28 29 29 29 28 27 26 26 25 24 24 23 23 23 23 24 25 24 23 22 25 29 33 35 37 37 37 35 35 36 38 39 41 42 43 44 45 45 45 45 45 44 43 42 42 41 40 40 41 42 43 44 45 44 43 41 40 39 38 37 37 39 40 39 37 36 35 35
31 33 37 40 38 30 22 21 23 23 23 24 25 27 30 30 28 26 27 29 29 29 27 26 26 26 25 25 24 24 25 26 27 27 27 26 25 26 28 31 34 35 36 35 34 34 34 34 35 38 40 42 44 45 46 46 47 47 46 45 43 41 40 41 42 42 42 43 44 44 43 41 40 40 40 39 38 39 40 39 38 37 37 36 36
30 31 34 38 42 38 30 26 26 26 26 28 29 27 25 27 27 26 25 27 28 28 28 27 27 27 26 26 25 25 27 29 30 31 31 31 30 29 29 30 30 31 32 32 32 33 33 32 32 33 35 39 42 45 47 48 48 48 48 48 45 42 41 41 42 42 42 43 43 43 42 41 40 40 41 40 40 40 39 39 39 39 39 39 39
31 31 32 34 40 42 37 30 30 30 28 28 30 29 25 25 27 27 25 25 27 28 29 29 28 28 27 26 26 27 27 27 29 32 34 36 35 34 33 31 30 30 30 30 31 31 32 32 31 31 32 33 36 40 44 47 49 50 50 50 49 46 43 41 41 41 42 43 43 42 42 42 41 41 41 41 40 39 39 39 39 40 41 41 41
33 32 31 32 35 41 41 35 33 34 32 29 29 31 29 27 27 27 27 26 27 28 29 30 30 29 28 27 28 29 29 27 27 28 32 36 39 39 37 35 34 33 33 32 32 33 33 33 33 33 33 32 33 36 39 43 46 49 50 51 52 50 46 44 42 42 42 43 43 42 42 42 41 41 40 40 40 38 38 40 41 40 41 42 42
36 34 33 32 32 36 40 38 35 36 35 32 29 31 32 30 28 27 28 28 27 28 29 29 30 30 30 31 32 34 34 33 31 29 29 32 36 39 40 40 39 39 38 37 37 37 37 36 37 38 37 36 35 36 37 39 41 44 47 50 52 51 49 46 45 44 43 43 42 41 42 41 41 40 40 40 39 38 38 41 41 40 40 42 40
37 35 35 35 33 32 35 37 37 36 36 34 31 31 32 32 30 29 30 30 30 29 29 29 30 31 32 34 36 37 38 38 37 35 33 32 33 36 40 42 43 43 43 42 41 41 41 41 41 41 40 41 41 40 39 39 40 41 43 47 49 50 49 48 47 46 45 43 41 41 41 41 41 40 40 40 39 38 39 42 42 40 40 41 38
38 36 35 35 35 34 34 35 37 37 37 35 34 35 35 33 31 31 31 32 32 32 32 31 32 33 34 36 37 39 40 40 40 40 39 38 36 36 37 40 43 45 46 45 45 45 45 45 44 44 44 44 45 44 43 42 42 42 42 44 46 48 48 48 49 48 46 44 42 41 42 42 41 41 41 40 40 40 41 43 43 41 40 40 38
37 35 35 35 35 35 35 35 36 37 37 37 37 39 39 36 33 32 32 32 33 35 35 35 35 35 37 39 40 41 42 43 43 42 42 41 41 40 39 39 41 44 46 46 46 47 48 47 46 45 46 46 47 48 48 47 46 45 44 44 46 47 47 48 50 50 48 45 43 43 43 43 42 42 42 41 42 43 43 44 44 42 42 42 40
35 34 34 35 34 34 35 36 37 37 38 38 39 42 42 38 35 34 33 32 33 34 36 38 38 38 39 41 42 44 45 45 46 46 45 43 43 43 42 41 41 43 45 46 46 47 48 48 47 47 47 46 47 49 49 50 49 48 47 48 48 47 45 47 49 51 50 48 46 45 46 45 44 44 44 43 44 45 46 45 44 43 44 46 44
35 33 33 34 34 34 34 35 36 38 38 38 40 42 43 41 38 36 34 33 33 34 35 37 39 40 41 41 41 43 44 45 45 46 45 44 44 44 45 44 43 43 44 46 46 47 48 49 50 49 48 47 47 47 48 51 51 50 49 50 50 46 44 45 48 51 52 51 49 48 48 47 47 46 46 45 46 47 47 46 45 44 46 48 46
35 33 32 33 34 34 33 33 34 36 37 38 39 41 42 42 40 38 36 34 34 34 35 36 37 39 40 40 40 42 43 44 44 45 44 43 44 45 46 46 46 45 45 46 47 48 49 50 51 50 49 48 47 46 47 49 51 50 49 50 49 46 44 46 49 51 52 52 51 50 50 50 50 50 49 48 47 48 48 47 45 45 47 49 48
35 33 32 32 32 32 32 32 33 33 35 37 38 39 41 42 41 39 38 36 35 35 35 36 36 37 37 38 39 40 41 41 42 42 41 41 42 43 44 46 47 47 46 47 49 50 50 51 51 50 49 47 46 45 46 48 49 48 48 49 49 47 46 47 50 52 52 52 51 51 52 53 53 52 51 50 48 48 48 47 46 46 48 50 50
36 34 32 31 31 31 31 31 31 31 33 34 36 37 38 40 40 39 37 36 36 36 36 36 36 36 37 37 37 37 38 38 38 38 38 38 39 40 41 43 45 45 46 47 49 52 52 52 51 50 48 47 46 45 46 47 48 48 47 48 49 49 47 47 49 51 52 52 52 53 54 54 54 54 53 52 50 48 47 46 46 46 47 49 50
36 35 33 31 31 30 30 29 29 29 30 32 33 34 35 36 37 37 36 35 34 35 35 36 36 36 36 36 36 36 37 37 37 37 38 38 39 39 40 41 43 44 46 48 50 52 53 52 51 50 49 47 46 45 45 46 46 47 47 47 47 48 49 50 50 51 51 52 53 54 55 55 55 55 55 52 50 49 47 46 46 47 47 49 49
36 35 34 32 30 29 29 29 29 29 29 30 31 32 33 34 35 35 34 33 33 33 34 34 35 35 36 36 36 37 37 38 38 38 38 39 39 40 41 42 44 45 47 49 50 52 53 52 51 49 48 48 47 46 45 45 45 45 45 45 45 46 48 51 51 50 50 51 52 54 55 56 57 57 55 52 50 49 49 49 49 49 48 49 50
35 35 34 33 31 29 28 28 28 28 28 29 29 30 31 32 33 33 33 32 32 32 32 33 35 35 36 37 38 38 39 39 39 39 38 39 40 40 42 43 44 45 46 48 50 51 51 51 50 49 49 48 47 46 45 45 44 43 42 43 44 44 45 47 49 50 50 50 51 53 54 56 57 57 54 52 51 50 50 50 50 49 49 50 49
35 36 35 34 32 29 27 26 27 27 27 27 27 27 27 28 29 30 31 31 31 31 32 33 34 35 37 38 39 40 40 40 40 40 40 39 39 40 41 41 42 43 44 45 47 48 48 49 49 49 49 49 48 46 45 44 43 42 41 41 42 42 42 43 44 47 48 48 48 50 52 54 56 57 55 53 52 51 49 48 48 48 50 50 49
Wind_Direction
223 225 226 227 226 224 222 218 217 216 216 216 216 216 217 216 212 208 208 209 211 211 208 205 204 204 206 210 215 219 220 220 216 210 206 206 209 201 191 192 196 193 192 194 194 195 198 200 203 206 204 198 191 186 184 185 185 185 187 189 194 198 202 207 214 223 231 238 247 254 260 266 273 278 284 290 294 298 303 309 311 314 322 328 333
225 226 226 227 227 227 225 223 221 220 220 218 216 216 217 217 217 216 215 213 214 215 212 209 208 207 209 211 215 219 224 227 225 221 217 214 215 212 202 197 199 198 196 197 198 199 201 204 205 207 204 197 193 188 185 185 187 188 190 192 197 202 207 211 217 226 237 245 251 257 263 268 274 278 283 287 290 294 299 305 310 313 318 322 326
225 226 227 228 228 229 228 226 224 223 223 222 219 218 218 219 221 222 221 221 220 219 218 216 214 212 212 213 215 218 222 227 229 227 225 223 221 220 214 208 206 206 207 209 209 207 207 209 209 207 203 199 195 192 189 189 191 194 197 199 203 209 214 218 221 226 236 247 256 263 267 271 276 280 283 287 290 292 296 301 307 310 313 316 320
225 226 227 229 229 230 230 229 227 225 224 224 223 222 221 221 223 224 225 226 226 226 225 224 222 219 218 218 219 220 222 226 228 227 226 226 226 225 221 216 214 213 215 217 217 214 211 213 212 208 205 202 200 196 195 195 198 202 205 207 212 217 222 226 229 231 235 241 252 263 270 274 279 283 285 288 291 294 297 301 305 308 311 312 315
222 225 227 227 229 231 231 231 230 228 226 226 225 226 226 225 225 226 227 228 229 230 231 230 229 227 225 224 224 224 224 226 227 227 226 226 228 229 227 223 219 218 219 220 220 218 215 215 216 212 207 204 203 201 201 203 206 210 212 215 220 225 229 234 237 239 240 242 246 255 265 273 279 283 285 287 290 293 297 301 304 307 310 311 313
215 221 225 227 228 230 232 233 233 232 230 229 227 228 229 229 228 228 229 231 231 232 234 235 234 232 230 229 228 227 228 228 228 228 229 229 229 230 231 229 226 223 222 222 222 221 218 218 220 217 211 207 207 208 209 211 214 217 220 224 228 233 237 241 244 246 247 249 249 252 260 269 275 281 285 287 289 291 294 298 301 305 308 309 311
213 213 220 225 228 229 232 234 235 235 234 233 232 231 231 231 231 231 232 233 233 234 235 237 238 238 236 234 232 230 230 230 230 229 230 232 232 232 233 233 232 229 226 225 224 223 221 220 222 222 218 214 214 216 218 220 222 225 228 233 237 241 245 248 251 253 254 256 257 258 261 266 272 278 282 285 287 289 290 293 297 300 303 306 307
219 214 214 220 225 228 231 233 235 236 236 235 235 235 234 233 233 232 232 233 235 236 236 237 238 240 241 240 237 234 232 232 231 230 231 232 233 234 234 234 236 234 232 229 228 227 226 224 224 225 224 221 221 224 226 228 230 232 236 240 244 248 252 255 257 259 261 262 264 266 268 270 274 278 281 283 285 286 288 290 293 296 298 300 301
224 220 215 215 219 224 229 232 234 236 237 237 237 237 237 237 236 235 233 233 234 236 237 238 238 238 240 241 241 239 236 233 232 232 232 232 232 234 234 235 236 236 236 234 232 231 231 230 229 229 229 228 228 229 231 234 237 238 241 245 249 252 255 257 259 262 264 266 268 271 273 274 277 279 281 283 284 285 286 289 291 294 296 297 298
224 220 217 215 216 220 224 228 231 234 237 238 239 239 240 240 239 238 236 235 235 235 236 238 239 239 238 239 241 242 240 236 233 234 234 234 233 233 233 234 235 236 237 237 237 236 235 235 234 233 233 234 234 235 237 239 241 243 246 249 252 255 257 259 262 264 266 269 271 273 275 277 279 281 281 282 283 284 285 287 290 292 295 297 298
226 222 220 219 219 219 221 223 227 230 234 237 239 240 241 241 241 241 240 238 238 237 237 237 239 240 240 239 239 241 242 239 236 235 235 235 235 234 234 234 234 236 237 239 239 239 239 239 239 238 238 238 239 240 241 243 245 247 250 252 255 258 261 263 266 268 270 272 274 275 277 279 282 282 282 282 282 282 284 286 289 292 294 296 298
228 227 225 224 223 222 221 223 225 227 229 232 235 238 240 241 242 242 242 241 240 239 239 238 239 240 242 241 240 240 241 240 238 237 236 235 236 236 236 235 235 236 238 239 240 241 242 242 242 242 243 243 244 245 245 247 249 251 253 256 258 260 263 266 269 271 273 275 276 278 280 281 282 282 283 282 281 283 285 286 289 290 292 295 297
229 229 229 228 226 224 223 224 225 226 227 229 232 234 236 239 241 242 242 242 242 241 241 240 240 241 242 243 243 242 241 239 239 238 237 236 237 238 238 238 238 238 238 240 241 242 243 244 244 245 245 246 247 248 250 251 253 255 256 258 261 263 266 269 271 273 276 277 278 279 280 280 280 281 281 281 281 283 285 287 288 289 291 294 296
230 231 231 231 229 227 225 224 224 225 227 228 229 231 234 236 239 241 242 242 242 242 242 242 242 242 243 244 245 245 243 240 239 239 238 236 237 238 240 241 241 240 240 241 242 243 245 246 246 247 247 248 249 251 253 255 256 258 260 261 264 266 268 270 272 274 276 276 277 277 277 277 278 278 278 280 282 283 284 285 286 288 290 292 293
230 233 233 232 230 228 227 225 224 224 226 228 229 230 232 235 237 239 241 242 243 243 243 243 242 243 244 245 246 246 246 244 242 240 239 238 238 239 240 242 243 243 243 243 243 245 246 248 249 249 248 249 250 252 254 256 257 259 261 263 265 268 269 270 271 272 273 274 275 276 276 276 277 277 277 279 281 282 282 283 285 289 291 291 290
233 234 235 234 231 229 227 225 224 222 223 226 229 230 232 234 237 239 241 243 244 244 244 244 243 243 244 245 245 246 246 245 244 243 241 241 241 241 241 242 244 245 245 245 245 246 246 248 250 251 251 251 251 252 254 256 258 259 261 263 266 267 267 268 269 270 271 273 275 276 276 276 277 277 277 278 280 282 283 285 289 292 292 292 291
237 235 235 236 235 232 228 226 225 224 224 225 227 230 233 234 236 238 240 242 243 243 243 243 243 243 243 243 244 244 243 243 244 244 243 243 244 244 243 243 244 246 246 246 246 246 247 248 250 251 252 253 252 252 253 255 258 261 262 264 266 266 266 266 267 269 272 274 275 276 276 277 277 277 278 278 280 282 284 289 293 293 292 292 292
241 237 235 235 235 234 231 228 226 226 227 228 228 229 232 234 235 237 238 239 240 240 241 241 240 241 241 241 241 241 240 239 240 241 241 242 243 243 244 244 244 245 246 246 246 247 247 248 250 251 252 254 253 252 253 255 258 261 262 264 265 265 265 267 267 268 270 272 273 274 275 275 276 276 277 278 280 282 285 290 292 291 291 292 291
243 240 238 236 234 234 233 230 227 227 228 229 229 228 229 230 233 235 236 237 238 237 238 238 237 237 237 237 238 238 237 236 236 237 238 239 241 241 242 243 244 244 246 246 247 248 248 249 249 251 253 254 254 253 253 254 257 259 260 260 262 264 265 266 266 266 267 268 269 271 272 273 273 274 275 277 278 280 283 286 288 288 289 289 289
246 242 241 239 236 234 234 233 230 227 226 227 228 228 228 228 230 232 234 236 237 238 239 240 241 240 238 237 236 236 236 234 233 234 235 236 239 240 241 241 243 244 246 247 249 249 250 249 249 251 253 254 254 254 254 254 255 257 257 258 260 263 263 262 262 263 264 265 266 268 270 271 273 275 276 277 278 279 281 282 284 284 285 286 287
245 245 244 242 238 235 234 235 234 230 226 225 226 227 228 229 230 231 233 235 237 240 242 245 247 248 247 245 241 237 236 234 233 233 233 234 235 238 240 241 243 245 246 248 249 249 250 250 250 251 252 252 253 254 255 255 255 254 256 258 260 261 260 259 259 260 262 264 266 268 270 272 275 277 277 278 278 279 279 280 281 282 283 284 286
242 243 244 244 241 238 236 235 234 233 229 225 224 224 224 226 229 231 233 235 238 240 243 246 248 250 252 252 250 245 240 237 235 234 234 234 235 237 240 241 242 244 245 246 248 249 250 251 252 252 253 253 253 253 254 255 254 254 257 259 260 260 259 259 260 260 261 264 267 270 272 274 275 276 277 278 278 278 277 278 278 279 280 282 283
242 236 238 240 240 241 241 237 234 233 230 226 223 222 220 221 224 227 229 233 238 242 245 248 250 251 252 254 255 254 250 245 242 240 237 237 237 238 240 241 241 242 245 247 248 249 250 251 252 253 254 254 254 254 254 254 254 255 257 259 260 260 259 259 261 263 265 267 269 272 274 276 276 276 276 277 276 276 275 275 275 276 279 281 282
241 231 230 232 232 235 240 240 238 237 234 229 224 221 220 219 219 221 225 230 237 243 246 249 250 250 250 252 254 256 257 254 252 249 245 242 241 240 241 242 241 243 245 247 249 250 251 251 252 253 254 254 255 256 255 255 255 256 257 258 259 260 260 262 264 266 267 269 271 273 275 276 275 275 275 274 273 271 271 272 273 276 278 280 281
242 239 235 232 229 229 232 237 240 240 239 237 231 225 223 223 220 219 224 230 235 242 245 246 246 245 244 247 251 255 259 259 258 257 255 251 248 245 243 243 243 244 246 247 248 249 251 251 252 253 253 254 255 255 255 256 257 258 258 258 258 260 262 265 266 268 269 272 273 274 274 274 275 274 273 271 269 269 270 271 272 274 276 277 279
246 251 250 243 235 230 229 233 238 240 241 242 241 233 230 231 227 222 224 230 234 238 240 240 239 239 239 241 247 252 257 260 261 261 260 258 256 253 250 248 247 247 248 249 249 249 249 250 250 252 253 254 254 255 256 256 257 257 257 257 259 262 265 267 269 271 272 274 274 274 273 273 273 273 272 270 269 269 270 270 271 271 273 275 276
249 253 259 255 245 235 231 232 235 237 237 239 241 237 234 235 234 226 224 229 233 234 235 234 234 237 240 242 245 249 253 257 259 260 259 258 258 258 258 256 254 252 252 252 252 251 251 251 252 253 253 254 254 255 256 256 256 256 257 259 262 265 267 269 271 272 273 273 274 275 273 272 272 272 271 270 268 267 267 268 269 269 271 272 274
255 250 257 263 255 243 236 233 234 237 237 236 238 237 233 234 236 232 227 229 231 230 230 231 232 237 241 241 241 241 244 249 255 258 259 257 256 257 258 259 259 258 257 255 254 252 251 250 251 252 252 253 254 256 257 258 258 259 259 261 263 265 267 268 270 271 273 275 276 276 274 272 271 269 269 267 265 264 264 265 266 267 268 270 271
259 255 257 265 262 251 242 237 235 238 240 238 238 238 235 236 240 239 234 231 230 226 225 226 228 232 234 235 236 237 241 247 253 256 256 255 252 250 250 251 253 253 252 251 249 248 248 249 250 251 252 253 254 255 257 258 259 260 260 261 262 264 265 267 268 271 273 275 276 276 274 272 270 267 266 264 263 262 261 262 263 265 266 267 269
258 257 259 264 266 259 251 244 239 238 236 236 239 240 239 240 242 239 234 230 227 224 223 223 225 229 232 234 238 241 243 246 249 252 254 256 255 250 246 244 244 245 244 243 245 248 250 252 254 254 255 255 255 256 257 258 258 259 260 261 262 263 264 266 267 269 271 272 274 275 274 273 271 269 266 263 262 262 261 261 262 263 265 266 267
255 256 258 261 266 264 258 253 249 243 236 232 235 238 238 239 241 238 233 230 226 224 223 223 224 228 232 235 239 242 244 247 251 255 257 258 257 254 248 243 242 242 242 243 246 250 253 255 255 256 256 257 258 259 259 259 259 259 260 260 261 262 264 266 267 269 270 271 272 273 273 273 272 271 268 265 263 262 261 260 260 261 263 265 266
253 255 256 257 260 265 260 254 256 258 249 242 239 239 237 236 238 239 237 235 232 229 226 224 225 228 232 236 239 241 244 248 253 259 261 260 258 257 252 247 243 242 242 244 248 252 254 255 255 255 255 257 258 259 260 261 262 262 261 262 263 264 265 267 269 269 269 270 269 269 270 272 272 270 267 265 264 263 261 260 260 260 262 264 265
253 253 255 254 255 263 266 256 251 262 268 257 247 243 242 240 238 238 240 240 241 239 235 231 230 231 233 237 241 243 245 249 252 257 263 265 262 258 254 250 246 244 244 247 251 254 254 254 254 254 254 256 257 258 259 261 263 263 263 264 266 267 268 269 269 268 268 268 267 267 268 270 270 269 267 265 265 264 262 261 261 261 261 262 264
253 252 252 253 253 258 270 264 253 253 263 261 248 243 245 247 245 240 240 242 243 243 241 238 236 235 235 236 240 243 247 250 252 255 260 264 261 255 252 250 249 248 249 251 253 254 253 253 253 252 252 252 254 256 259 260 262 263 264 264 266 268 269 268 268 269 270 269 267 266 267 268 267 266 265 265 264 263 262 262 262 261 261 263 265
251 251 250 250 250 254 266 271 261 251 252 256 253 246 245 248 249 245 240 239 239 241 241 239 237 236 236 239 242 246 249 252 253 255 258 261 260 257 254 254 253 254 255 256 257 256 254 253 253 252 251 251 251 254 257 259 260 261 262 263 263 265 267 268 268 270 273 272 269 267 266 265 264 264 263 263 262 262 262 262 263 264 265 267 268
247 250 250 248 246 249 259 271 270 260 252 253 256 253 248 247 249 249 246 240 237 237 237 236 235 235 238 243 247 249 251 253 254 255 258 260 261 261 260 260 260 260 261 261 261 261 259 258 257 255 253 251 250 251 254 256 258 260 261 262 262 262 263 265 267 269 272 273 271 268 265 263 261 262 262 262 262 262 262 264 266 269 270 270 269
241 245 249 248 245 244 249 264 273 270 262 255 252 251 250 248 246 249 251 248 242 238 237 236 237 239 241 245 248 249 250 251 253 254 256 259 260 262 263 264 264 263 262 262 263 263 263 263 263 261 259 256 253 252 252 254 256 258 259 261 261 261 261 262 264 266 269 271 272 269 265 263 261 261 262 262 262 263 264 267 271 273 274 272 271
237 239 244 248 247 243 243 253 267 271 269 263 252 247 250 252 248 246 250 252 249 244 241 239 239 241 243 245 248 250 251 253 255 255 256 256 258 260 262 264 264 263 262 262 263 263 263 263 264 265 265 263 259 256 255 255 256 257 259 260 260 260 260 260 261 262 263 267 270 270 267 263 261 261 262 263 263 265 269 272 273 274 274 271 269
236 237 238 243 246 244 242 246 257 266 269 268 261 253 253 255 252 248 249 252 251 249 247 245 243 243 245 247 249 251 252 254 257 260 261 260 259 259 260 262 263 263 262 262 262 263 263 264 265 266 266 265 263 262 261 260 259 259 259 259 260 260 260 260 261 261 262 264 268 269 268 264 261 261 262 263 264 268 271 273 275 274 273 270 268
237 238 237 238 241 244 242 243 250 259 265 266 265 262 258 256 254 251 250 251 252 252 251 250 249 248 248 249 251 253 254 255 257 260 264 266 265 264 262 262 263 264 264 264 264 264 264 264 265 267 267 267 267 265 264 263 262 260 259 259 259 259 260 261 261 261 261 263 265 267 266 263 260 259 260 262 266 270 272 274 275 274 271 269 268
237 239 239 238 238 239 241 242 246 253 259 261 263 266 264 260 255 253 251 251 252 253 253 253 253 252 252 252 254 256 257 258 260 261 263 266 268 269 268 266 264 264 265 265 265 265 266 266 267 267 268 269 269 268 265 263 261 260 259 258 257 256 257 259 260 260 260 261 263 264 263 260 258 258 259 262 266 269 271 273 274 272 268 266 267
238 239 240 240 238 238 239 240 243 249 253 254 257 263 266 263 257 253 252 251 251 252 252 253 254 255 256 257 258 258 260 261 263 264 265 266 267 268 270 270 267 264 264 265 265 265 265 266 267 267 267 268 268 267 266 263 261 260 260 259 256 253 252 254 256 258 259 261 261 261 259 257 255 256 259 261 265 268 269 270 271 269 266 265 265
239 239 239 240 240 239 239 239 240 244 249 251 253 258 264 263 259 255 252 251 250 250 251 252 253 254 256 258 259 260 261 262 264 265 266 266 266 267 268 270 270 267 264 264 264 264 264 265 265 265 265 266 267 266 265 263 261 261 260 259 256 254 253 253 253 254 256 258 258 258 257 256 254 255 257 260 263 265 266 267 268 267 266 267 267
240 240 240 240 241 241 242 241 241 242 245 247 250 254 260 262 261 258 255 252 251 251 251 251 251 252 253 255 257 258 259 261 263 264 264 264 265 266 267 269 271 271 267 264 262 262 262 263 263 264 264 265 267 267 265 261 259 259 260 260 260 259 258 256 253 251 252 254 256 257 257 255 254 254 255 258 260 262 263 265 265 265 266 268 269
242 241 241 241 241 242 243 244 244 243 244 245 247 250 255 259 260 259 257 254 252 251 251 251 251 250 251 252 254 255 255 256 258 260 261 262 264 266 267 268 271 273 272 267 263 261 261 261 262 264 265 266 268 269 266 261 258 258 261 265 268 267 264 260 256 252 249 249 252 255 255 255 255 255 255 256 258 260 262 263 263 262 264 268 269
242 243 243 242 242 242 243 245 246 246 246 245 245 247 250 254 257 259 258 255 252 251 251 251 251 251 251 251 251 252 253 255 256 257 258 259 261 264 267 268 270 272 273 271 266 263 262 262 263 264 266 267 269 270 268 263 260 259 260 264 268 269 266 261 258 254 250 248 250 252 253 254 255 255 255 256 257 259 261 262 261 259 261 265 268
242 242 243 244 243 244 244 246 248 249 249 248 247 246 247 250 253 256 256 255 253 251 250 250 251 251 251 252 252 253 255 256 258 258 259 260 261 263 266 268 269 269 270 270 267 264 264 264 264 265 266 268 269 269 268 264 262 261 262 263 265 267 265 260 256 253 251 250 249 250 252 253 253 255 255 255 256 258 260 259 256 256 259 263 267
241 241 243 244 244 244 245 245 247 249 251 251 251 249 249 249 251 252 254 254 253 251 250 249 249 249 250 251 252 254 255 257 259 260 261 261 263 264 265 267 268 268 268 268 266 264 264 264 264 264 265 266 267 267 266 264 263 263 264 265 266 266 265 261 255 251 250 249 248 249 251 252 253 254 255 254 255 257 257 255 253 254 257 261 265
241 240 241 243 244 245 245 245 246 248 252 253 253 252 251 251 251 252 252 252 252 251 250 249 248 248 248 249 250 252 254 256 258 259 260 262 263 264 265 266 266 267 266 267 266 264 263 263 264 264 264 264 265 265 263 262 262 264 266 267 267 265 264 262 257 253 251 249 248 248 250 252 253 254 254 254 254 255 254 252 250 251 255 258 263
241 239 239 241 244 246 247 247 247 248 252 255 254 253 252 252 253 253 254 253 252 250 248 248 248 248 248 248 248 250 251 253 255 257 259 260 262 264 265 265 266 266 266 266 265 265 264 263 263 264 264 264 264 263 262 261 262 264 266 268 268 265 262 260 257 255 253 251 249 247 248 250 252 254 255 255 254 254 253 251 249 251 255 259 262
240 238 238 239 243 246 248 250 249 249 251 253 255 255 254 254 255 256 256 256 254 252 250 249 249 249 249 249 250 250 251 253 254 256 257 259 260 262 264 265 266 266 265 265 265 265 265 264 263 263 263 263 263 263 262 262 263 263 265 266 265 262 259 257 255 252 251 249 248 247 247 248 251 253 254 253 252 250 250 249 249 251 255 258 261
Height
3206 3207 3209 3211 3213 3215 3217 3219 3220 3222 3224 3225 3227 3229 3231 3232 3234 3235 3236 3237 3238 3239 3240 3241 3242 3243 3244 3245 3246 3247 3247 3248 3249 3250 3250 3251 3251 3252 3253 3253 3254 3254 3255 3255 3256 3256 3257 3257 3258 3259 3259 3260 3261 3262 3263 3264 3265 3265 3266 3267 3268 3268 3269 3270 3270 3270 3270 3271 3270 3270 3270 3270 3270 3270 3269 3269 3268 3267 3267 3267 3266 3265 3263 3262 3261
3204 3206 3208 3209 3211 3213 3215 3217 3219 3220 3222 3224 3225 3227 3229 3231 3232 3233 3235 3236 3237 3238 3239 3240 3240 3241 3243 3244 3245 3246 3246 3247 3248 3249 3249 3250 3251 3251 3252 3252 3253 3253 3254 3255 3255 3256 3256 3257 3257 3258 3258 3259 3260 3261 3262 3263 3264 3265 3265 3266 3267 3268 3268 3269 3269 3269 3269 3269 3269 3269 3269 3269 3269 3268 3268 3268 3267 3266 3266 3266 3265 3263 3262 3261 3260
3202 3204 3206 3207 3209 3211 3213 3215 3216 3218 3220 3222 3224 3225 3227 3229 3230 3232 3233 3234 3236 3237 3238 3238 3239 3240 3241 3242 3243 3244 3245 3246 3247 3248 3248 3249 3250 3250 3251 3252 3252 3253 3253 3254 3254 3255 3256 3256 3257 3257 3258 3258 3259 3260 3261 3262 3263 3264 3264 3265 3266 3266 3267 3268 3268 3268 3268 3268 3268 3268 3268 3267 3267 3267 3266 3266 3265 3264 3264 3264 3263 3262 3261 3260 3259
3201 3202 3204 3206 3207 3209 3211 3212 3214 3216 3217 3219 3221 3223 3225 3227 3229 3230 3232 3233 3234 3235 3236 3237 3238 3239 3240 3241 3242 3243 3244 3245 3246 3247 3247 3248 3249 3249 3250 3251 3251 3252 3252 3253 3254 3254 3255 3256 3256 3257 3257 3258 3259 3259 3260 3261 3262 3263 3263 3264 3264 3265 3266 3266 3267 3267 3267 3267 3267 3267 3266 3266 3266 3265 3264 3264 3263 3262 3262 3262 3261 3261 3259 3258 3257
3198 3200 3202 3204 3205 3207 3208 3210 3212 3214 3215 3217 3219 3221 3223 3225 3226 3228 3229 3231 3232 3233 3234 3235 3236 3237 3238 3240 3241 3242 3242 3243 3244 3245 3246 3247 3247 3248 3249 3249 3250 3251 3251 3252 3253 3253 3254 3255 3255 3256 3257 3257 3258 3259 3259 3260 3261 3261 3262 3263 3263 3264 3264 3265 3265 3266 3266 3266 3266 3266 3265 3265 3264 3263 3262 3262 3262 3261 3260 3259 3259 3259 3258 3257 3255
3195 3198 3200 3201 3203 3204 3206 3208 3210 3212 3213 3215 3217 3219 3220 3222 3224 3226 3227 3229 3230 3231 3232 3233 3235 3236 3237 3238 3239 3240 3241 3241 3242 3243 3244 3245 3246 3246 3247 3248 3249 3249 3250 3251 3251 3252 3253 3254 3254 3255 3256 3257 3257 3258 3259 3259 3260 3260 3261 3261 3262 3262 3263 3263 3263 3264 3264 3265 3265 3264 3264 3263 3263 3262 3261 3260 3260 3259 3258 3258 3257 3256 3256 3255 3254
3191 3194 3197 3199 3200 3202 3204 3206 3208 3209 3211 3213 3215 3216 3218 3220 3221 3223 3225 3226 3228 3229 3230 3231 3233 3234 3235 3236 3237 3238 3239 3239 3240 3241 3242 3243 3244 3244 3245 3246 3247 3248 3249 3249 3250 3251 3252 3252 3253 3254 3255 3255 3256 3257 3257 3258 3258 3259 3260 3260 3260 3260 3261 3261 3262 3262 3262 3263 3263 3263 3262 3262 3261 3261 3260 3259 3258 3257 3257 3256 3256 3255 3254 3253 3252
3188 3190 3193 3195 3198 3200 3202 3204 3205 3207 3209 3210 3212 3214 3215 3217 3219 3220 3222 3223 3225 3226 3227 3229 3230 3231 3232 3234 3235 3236 3236 3237 3238 3239 3240 3241 3241 3242 3243 3244 3245 3246 3247 3248 3248 3249 3250 3251 3252 3252 3253 3254 3255 3255 3255 3256 3257 3257 3258 3258 3259 3259 3259 3260 3260 3260 3260 3260 3260 3261 3260 3260 3260 3259 3258 3257 3256 3255 3254 3254 3254 3254 3253 3252 3251
3186 3188 3189 3192 3195 3197 3200 3201 3203 3204 3206 3207 3209 3211 3212 3214 3216 3217 3219 3220 3222 3223 3225 3226 3227 3228 3229 3231 3232 3233 3233 3235 3236 3237 3238 3238 3239 3240 3241 3242 3243 3244 3245 3246 3246 3247 3248 3249 3250 3251 3251 3252 3253 3253 3254 3254 3255 3255 3256 3256 3257 3257 3257 3257 3258 3258 3258 3258 3258 3258 3258 3258 3258 3257 3256 3255 3254 3253 3252 3252 3251 3251 3251 3250 3249
3183 3185 3187 3189 3192 3194 3196 3198 3200 3202 3203 3205 3206 3208 3209 3211 3212 3214 3216 3217 3219 3220 3222 3223 3224 3225 3226 3227 3228 3229 3230 3232 3233 3234 3235 3236 3237 3238 3238 3239 3240 3241 3242 3243 3244 3245 3246 3247 3247 3248 3249 3250 3250 3251 3252 3252 3252 3253 3254 3254 3254 3254 3255 3255 3255 3256 3256 3255 3256 3256 3255 3255 3255 3254 3254 3252 3251 3250 3249 3249 3248 3248 3248 3247 3246
3181 3183 3185 3187 3188 3190 3192 3194 3196 3198 3200 3202 3203 3205 3206 3208 3209 3211 3212 3214 3215 3217 3218 3220 3221 3222 3223 3224 3225 3226 3227 3229 3230 3231 3232 3233 3234 3235 3236 3237 3238 3238 3239 3240 3241 3242 3243 3244 3245 3246 3246 3247 3248 3249 3249 3250 3250 3251 3251 3251 3252 3252 3252 3252 3253 3253 3253 3253 3253 3253 3252 3252 3252 3251 3251 3250 3248 3247 3247 3246 3246 3245 3245 3244 3244
3177 3180 3182 3184 3186 3187 3189 3191 3192 3195 3197 3198 3200 3202 3203 3204 3206 3207 3209 3211 3212 3213 3215 3216 3218 3219 3220 3221 3222 3223 3224 3226 3227 3228 3229 3230 3231 3232 3233 3234 3234 3235 3236 3237 3239 3240 3240 3241 3242 3243 3244 3245 3245 3246 3246 3247 3247 3248 3248 3249 3249 3249 3249 3250 3250 3250 3250 3250 3250 3250 3249 3249 3249 3248 3247 3246 3245 3245 3244 3244 3243 3243 3242 3242 3241
3174 3176 3178 3181 3182 3184 3186 3187 3189 3191 3193 3195 3196 3198 3199 3200 3202 3204 3205 3207 3208 3209 3211 3213 3214 3215 3216 3217 3219 3220 3221 3222 3224 3225 3226 3227 3228 3229 3230 3231 3231 3232 3233 3234 3236 3236 3237 3238 3239 3240 3241 3242 3242 3243 3243 3244 3245 3245 3245 3245 3246 3246 3246 3247 3247 3247 3246 3246 3246 3246 3246 3246 3245 3245 3244 3243 3243 3242 3241 3241 3240 3240 3239 3239 3238
3170 3172 3174 3176 3178 3180 3182 3184 3185 3187 3189 3191 3192 3193 3195 3196 3198 3200 3201 3203 3204 3206 3207 3209 3210 3211 3213 3214 3215 3216 3217 3219 3221 3222 3223 3224 3225 3226 3227 3227 3228 3229 3230 3231 3232 3233 3234 3235 3236 3237 3238 3238 3239 3239 3240 3241 3241 3242 3242 3242 3243 3243 3243 3243 3244 3244 3243 3242 3242 3243 3243 3243 3242 3243 3242 3240 3240 3240 3239 3238 3238 3237 3237 3236 3236
3166 3168 3170 3173 3174 3176 3179 3180 3182 3183 3185 3186 3188 3189 3191 3193 3194 3196 3197 3199 3200 3202 3203 3205 3206 3207 3209 3210 3211 3212 3214 3216 3217 3218 3220 3221 3222 3223 3223 3224 3225 3225 3227 3228 3229 3230 3231 3232 3232 3234 3234 3235 3236 3237 3237 3238 3238 3238 3239 3239 3240 3240 3240 3240 3240 3240 3240 3239 3239 3239 3240 3240 3239 3239 3239 3238 3237 3237 3236 3235 3235 3235 3234 3233 3233
3161 3163 3166 3169 3171 3173 3175 3177 3178 3180 3181 3182 3184 3185 3187 3189 3190 3192 3193 3195 3196 3198 3199 3201 3202 3203 3205 3206 3207 3208 3210 3212 3213 3215 3216 3218 3218 3219 3219 3220 3221 3222 3223 3225 3226 3227 3228 3228 3229 3230 3231 3232 3233 3234 3234 3234 3234 3235 3235 3236 3236 3236 3237 3237 3237 3237 3236 3236 3236 3236 3237 3236 3236 3236 3236 3235 3235 3234 3233 3233 3233 3232 3231 3230 3230
3157 3159 3161 3164 3167 3169 3172 3173 3175 3176 3177 3178 3180 3182 3184 3185 3187 3188 3189 3191 3192 3194 3195 3197 3198 3199 3200 3201 3202 3204 3206 3208 3209 3211 3213 3214 3214 3215 3216 3216 3217 3218 3219 3221 3222 3223 3224 3225 3225 3226 3227 3228 3230 3231 3231 3231 3231 3231 3232 3233 3233 3233 3233 3234 3234 3234 3233 3233 3232 3232 3233 3233 3233 3233 3233 3232 3232 3231 3231 3230 3230 3229 3228 3227 3227
3152 3155 3157 3159 3162 3165 3168 3170 3172 3173 3174 3175 3177 3178 3180 3181 3183 3184 3186 3187 3188 3190 3191 3193 3194 3195 3196 3197 3198 3200 3202 3203 3205 3206 3208 3209 3210 3211 3212 3212 3213 3214 3215 3217 3218 3219 3220 3221 3222 3222 3223 3225 3226 3227 3227 3227 3227 3227 3228 3229 3229 3229 3230 3231 3231 3231 3230 3229 3229 3229 3229 3229 3229 3229 3229 3229 3229 3228 3228 3228 3227 3226 3225 3224 3223
3148 3150 3152 3154 3157 3160 3163 3166 3168 3170 3171 3172 3174 3175 3176 3178 3179 3180 3182 3183 3184 3186 3187 3188 3189 3191 3192 3193 3194 3195 3197 3199 3200 3201 3203 3204 3205 3206 3208 3208 3208 3210 3211 3213 3214 3215 3216 3217 3218 3219 3220 3222 3223 3223 3224 3224 3223 3224 3224 3225 3225 3226 3227 3228 3228 3227 3227 3226 3225 3225 3225 3226 3226 3226 3226 3226 3226 3225 3225 3224 3224 3222 3221 3221 3221
3144 3146 3148 3150 3153 3156 3159 3162 3164 3166 3167 3169 3170 3172 3173 3175 3176 3177 3178 3179 3181 3182 3183 3184 3186 3187 3188 3189 3190 3191 3193 3194 3196 3197 3199 3200 3201 3202 3203 3203 3204 3206 3207 3209 3209 3210 3212 3213 3214 3215 3217 3218 3219 3220 3220 3220 3220 3220 3220 3220 3221 3223 3225 3224 3224 3223 3223 3222 3222 3222 3222 3222 3222 3222 3223 3223 3222 3222 3221 3221 3221 3219 3218 3218 3218
3140 3142 3144 3145 3148 3152 3155 3157 3160 3162 3163 3165 3166 3167 3169 3171 3172 3173 3175 3176 3178 3179 3180 3181 3182 3183 3185 3186 3187 3188 3189 3190 3192 3193 3194 3196 3197 3198 3199 3199 3201 3203 3204 3205 3205 3206 3207 3208 3210 3212 3213 3214 3216 3216 3216 3216 3216 3216 3216 3217 3218 3220 3220 3220 3220 3220 3219 3218 3218 3218 3218 3219 3219 3219 3219 3219 3219 3218 3218 3218 3217 3216 3215 3215 3215
3137 3139 3141 3142 3144 3147 3150 3152 3155 3157 3158 3159 3160 3162 3164 3166 3168 3170 3171 3173 3174 3175 3176 3177 3178 3180 3181 3182 3183 3184 3186 3187 3188 3189 3190 3191 3193 3194 3194 3196 3198 3199 3200 3200 3201 3202 3203 3205 3206 3208 3209 3210 3211 3212 3212 3212 3212 3212 3213 3214 3215 3216 3215 3215 3215 3215 3215 3215 3215 3215 3215 3216 3216 3216 3216 3216 3215 3215 3214 3214 3213 3212 3211 3212 3212
3134 3136 3137 3139 3140 3142 3145 3147 3149 3151 3152 3152 3153 3155 3158 3160 3162 3165 3167 3168 3170 3171 3173 3174 3175 3176 3177 3178 3179 3181 3182 3183 3184 3185 3186 3188 3189 3190 3191 3192 3194 3194 3195 3196 3197 3198 3199 3201 3202 3204 3205 3206 3207 3207 3208 3207 3207 3208 3210 3210 3211 3211 3210 3210 3210 3211 3211 3212 3212 3212 3212 3213 3213 3213 3212 3212 3212 3211 3210 3209 3209 3208 3208 3208 3208
3132 3133 3134 3135 3136 3137 3139 3142 3143 3144 3145 3145 3145 3148 3152 3154 3157 3159 3162 3164 3165 3167 3168 3170 3171 3172 3173 3174 3175 3176 3178 3179 3181 3182 3183 3184 3185 3186 3187 3188 3189 3190 3191 3192 3193 3194 3195 3197 3199 3200 3201 3202 3202 3203 3202 3202 3203 3204 3206 3206 3206 3205 3204 3205 3206 3206 3207 3207 3207 3208 3208 3209 3209 3209 3209 3209 3208 3206 3206 3206 3205 3205 3205 3204 3204
3129 3130 3131 3131 3132 3133 3134 3136 3137 3138 3139 3140 3142 3145 3147 3149 3151 3154 3157 3158 3160 3162 3164 3166 3167 3168 3169 3170 3171 3172 3174 3175 3177 3178 3179 3180 3181 3182 3183 3184 3184 3186 3186 3188 3189 3190 3191 3193 3195 3196 3197 3198 3198 3197 3197 3198 3199 3200 3201 3201 3201 3200 3199 3200 3201 3201 3202 3203 3203 3204 3204 3205 3205 3205 3205 3204 3203 3203 3202 3202 3202 3201 3201 3200 3200
3125 3126 3128 3128 3128 3128 3130 3130 3131 3133 3135 3137 3141 3144 3146 3146 3147 3149 3151 3154 3155 3158 3160 3162 3163 3164 3165 3166 3167 3168 3170 3171 3172 3174 3175 3176 3177 3178 3179 3180 3181 3181 3182 3183 3185 3186 3187 3189 3190 3192 3193 3193 3193 3193 3193 3194 3195 3195 3196 3196 3196 3195 3196 3196 3196 3196 3197 3198 3199 3200 3200 3200 3200 3200 3201 3200 3199 3199 3199 3198 3198 3197 3197 3197 3196
3123 3122 3123 3124 3124 3124 3125 3126 3126 3128 3131 3133 3137 3141 3143 3144 3144 3145 3147 3149 3151 3153 3155 3157 3159 3160 3161 3162 3163 3165 3166 3167 3168 3169 3170 3171 3172 3173 3174 3176 3177 3178 3178 3180 3181 3182 3183 3185 3186 3187 3188 3188 3188 3188 3188 3189 3189 3190 3191 3191 3191 3191 3192 3192 3191 3191 3191 3192 3194 3195 3196 3196 3195 3195 3196 3196 3195 3195 3195 3194 3193 3193 3193 3193 3192
3122 3120 3119 3120 3121 3120 3121 3122 3123 3124 3126 3128 3132 3136 3139 3140 3141 3142 3143 3145 3147 3148 3150 3152 3155 3157 3158 3159 3160 3161 3161 3163 3164 3165 3166 3167 3168 3169 3170 3171 3172 3173 3174 3176 3177 3177 3179 3180 3181 3182 3182 3182 3183 3183 3183 3184 3184 3185 3186 3187 3187 3187 3187 3187 3187 3186 3186 3187 3189 3190 3190 3190 3191 3190 3190 3190 3190 3190 3190 3190 3189 3189 3189 3189 3189
3120 3119 3117 3116 3117 3117 3117 3118 3119 3121 3122 3123 3127 3132 3135 3136 3137 3139 3141 3142 3143 3144 3145 3147 3150 3152 3153 3154 3155 3156 3157 3159 3161 3161 3161 3162 3163 3164 3165 3166 3167 3168 3169 3170 3171 3171 3172 3174 3175 3176 3176 3177 3177 3178 3178 3179 3179 3180 3181 3182 3183 3183 3183 3182 3182 3182 3182 3182 3183 3184 3185 3185 3185 3185 3185 3185 3184 3185 3185 3185 3185 3184 3184 3184 3185
3117 3117 3116 3114 3113 3113 3114 3115 3116 3118 3119 3119 3122 3127 3130 3131 3133 3135 3137 3139 3139 3140 3141 3143 3145 3147 3148 3150 3151 3152 3154 3155 3156 3157 3157 3157 3158 3159 3159 3160 3161 3162 3163 3163 3163 3165 3166 3168 3169 3170 3171 3171 3172 3172 3173 3173 3174 3175 3176 3177 3178 3178 3178 3178 3178 3178 3178 3178 3178 3178 3179 3179 3179 3180 3180 3179 3179 3180 3180 3180 3180 3179 3179 3180 3181
3111 3113 3114 3112 3110 3110 3111 3112 3113 3114 3115 3115 3118 3122 3125 3127 3129 3131 3133 3134 3135 3136 3137 3139 3141 3142 3144 3146 3147 3148 3150 3151 3151 3152 3152 3153 3153 3154 3154 3155 3155 3156 3157 3156 3157 3159 3162 3163 3164 3165 3166 3166 3167 3167 3167 3168 3168 3170 3171 3172 3173 3173 3173 3173 3173 3174 3174 3174 3173 3173 3173 3173 3174 3174 3174 3174 3174 3174 3175 3175 3175 3175 3175 3175 3176
3105 3108 3110 3110 3107 3107 3108 3110 3110 3109 3110 3111 3114 3118 3121 3123 3125 3127 3128 3130 3131 3132 3133 3135 3137 3138 3140 3142 3143 3144 3145 3146 3146 3147 3148 3148 3149 3149 3150 3151 3151 3151 3151 3151 3152 3154 3156 3157 3158 3159 3160 3161 3161 3162 3162 3162 3163 3164 3165 3166 3167 3168 3168 3169 3170 3170 3169 3168 3168 3168 3168 3168 3168 3169 3169 3169 3169 3169 3169 3169 3169 3170 3171 3171 3171
3099 3102 3104 3106 3105 3104 3104 3106 3106 3105 3105 3108 3111 3114 3116 3118 3120 3122 3123 3124 3126 3128 3129 3131 3132 3134 3135 3137 3138 3139 3141 3141 3142 3142 3142 3143 3143 3144 3145 3146 3146 3146 3146 3146 3147 3149 3150 3151 3152 3153 3155 3156 3156 3156 3157 3157 3158 3159 3160 3161 3162 3162 3163 3165 3165 3164 3163 3163 3163 3163 3163 3163 3163 3163 3163 3163 3164 3164 3164 3164 3164 3166 3166 3166 3167
3094 3096 3098 3101 3103 3102 3101 3103 3104 3103 3104 3106 3109 3111 3113 3115 3116 3117 3118 3119 3120 3122 3125 3127 3128 3129 3130 3132 3133 3134 3136 3136 3137 3137 3137 3137 3138 3138 3139 3139 3140 3140 3141 3142 3143 3144 3144 3145 3146 3148 3149 3150 3150 3150 3151 3152 3152 3153 3154 3156 3157 3158 3159 3159 3159 3158 3158 3158 3157 3157 3157 3158 3157 3157 3157 3158 3158 3158 3158 3158 3159 3161 3161 3162 3162
3089 3090 3092 3095 3098 3100 3099 3100 3102 3103 3104 3105 3107 3108 3110 3110 3111 3111 3113 3114 3115 3117 3119 3122 3123 3124 3125 3127 3128 3130 3131 3131 3131 3131 3131 3132 3132 3133 3133 3133 3134 3135 3136 3137 3138 3138 3139 3140 3141 3143 3144 3144 3144 3144 3145 3145 3146 3147 3148 3149 3151 3152 3153 3153 3153 3153 3153 3152 3152 3152 3152 3152 3152 3152 3152 3153 3153 3153 3153 3153 3154 3155 3156 3157 3157
3083 3085 3086 3089 3092 3096 3096 3097 3098 3100 3101 3102 3103 3104 3104 3105 3105 3105 3106 3108 3110 3112 3114 3116 3118 3119 3121 3123 3124 3125 3125 3125 3125 3125 3126 3126 3127 3127 3128 3128 3129 3130 3131 3132 3133 3134 3134 3136 3137 3138 3139 3139 3140 3140 3140 3140 3140 3141 3142 3142 3144 3146 3147 3147 3147 3148 3148 3147 3146 3146 3147 3147 3147 3147 3147 3147 3147 3147 3148 3148 3149 3150 3151 3152 3152
3077 3079 3081 3083 3086 3090 3092 3093 3093 3095 3097 3098 3098 3098 3098 3099 3099 3100 3101 3102 3104 3106 3108 3111 3112 3114 3116 3118 3119 3119 3119 3119 3119 3120 3121 3121 3122 3122 3123 3124 3125 3126 3126 3127 3128 3129 3129 3130 3132 3133 3134 3135 3135 3135 3135 3135 3135 3135 3136 3136 3137 3139 3140 3141 3142 3142 3142 3141 3141 3140 3140 3141 3142 3142 3141 3142 3142 3142 3143 3143 3143 3144 3145 3146 3146
3072 3074 3075 3077 3079 3083 3086 3089 3090 3090 3091 3092 3093 3093 3094 3094 3094 3095 3096 3097 3099 3101 3103 3105 3106 3108 3111 3113 3113 3113 3113 3114 3114 3115 3116 3116 3116 3117 3118 3119 3119 3120 3121 3122 3123 3123 3124 3125 3126 3127 3128 3129 3129 3130 3129 3129 3129 3129 3130 3130 3131 3132 3134 3135 3135 3136 3136 3136 3135 3135 3135 3135 3136 3136 3136 3137 3137 3138 3138 3137 3137 3139 3139 3139 3139
3067 3069 3070 3072 3074 3076 3080 3083 3085 3085 3086 3086 3087 3088 3089 3089 3090 3090 3092 3093 3094 3096 3097 3099 3101 3103 3105 3106 3106 3107 3108 3108 3109 3110 3111 3111 3111 3112 3112 3113 3113 3114 3115 3116 3116 3117 3118 3119 3120 3120 3121 3122 3123 3124 3124 3124 3124 3124 3124 3124 3124 3126 3128 3129 3129 3129 3130 3130 3130 3130 3130 3130 3131 3131 3131 3132 3132 3134 3133 3132 3131 3133 3134 3134 3134
3062 3064 3065 3066 3068 3071 3073 3077 3079 3081 3081 3081 3081 3082 3084 3084 3084 3085 3087 3088 3089 3090 3092 3093 3095 3097 3099 3100 3100 3101 3102 3103 3104 3105 3105 3105 3106 3107 3107 3107 3108 3108 3109 3109 3110 3111 3111 3112 3113 3114 3115 3115 3116 3117 3117 3117 3117 3118 3118 3117 3118 3119 3121 3122 3123 3124 3124 3124 3125 3125 3125 3125 3125 3126 3126 3126 3127 3128 3128 3126 3126 3128 3129 3129 3130
3058 3059 3060 3061 3063 3066 3068 3071 3074 3075 3076 3077 3077 3077 3078 3078 3079 3079 3081 3082 3083 3085 3086 3088 3089 3092 3093 3094 3094 3095 3096 3097 3098 3099 3099 3100 3100 3101 3101 3102 3102 3103 3103 3103 3103 3104 3104 3105 3106 3107 3107 3108 3108 3109 3109 3109 3110 3110 3110 3111 3111 3112 3113 3115 3117 3118 3119 3119 3120 3120 3120 3119 3120 3120 3120 3121 3122 3122 3122 3121 3120 3122 3124 3125 3125
3053 3055 3056 3057 3058 3060 3062 3064 3067 3069 3071 3072 3072 3072 3072 3072 3073 3074 3075 3076 3077 3078 3080 3081 3083 3086 3087 3088 3088 3088 3089 3091 3092 3092 3093 3093 3094 3095 3096 3096 3097 3097 3097 3097 3097 3097 3097 3098 3099 3100 3100 3101 3101 3101 3101 3101 3102 3102 3104 3104 3104 3104 3106 3108 3110 3111 3113 3114 3114 3114 3113 3113 3114 3114 3115 3116 3116 3115 3115 3115 3115 3115 3117 3119 3120
3049 3050 3051 3052 3053 3055 3056 3058 3060 3062 3065 3066 3067 3067 3066 3067 3067 3068 3069 3070 3071 3072 3073 3075 3077 3079 3081 3081 3081 3082 3083 3084 3085 3085 3086 3086 3087 3088 3089 3090 3090 3090 3090 3090 3091 3091 3090 3091 3091 3092 3093 3093 3094 3093 3094 3094 3094 3095 3096 3095 3096 3099 3102 3103 3103 3104 3106 3107 3107 3107 3106 3107 3108 3108 3109 3109 3109 3108 3108 3109 3110 3110 3110 3111 3113
3045 3046 3047 3048 3049 3050 3051 3052 3053 3055 3057 3059 3061 3062 3061 3061 3061 3062 3063 3064 3065 3066 3067 3068 3070 3072 3074 3075 3075 3075 3076 3077 3078 3078 3078 3079 3080 3080 3081 3082 3083 3084 3083 3083 3084 3084 3083 3083 3083 3084 3085 3086 3086 3086 3086 3086 3086 3087 3087 3088 3090 3094 3098 3099 3098 3097 3098 3099 3101 3101 3100 3101 3101 3101 3102 3102 3103 3102 3101 3102 3104 3104 3104 3104 3105
3040 3042 3043 3044 3045 3046 3047 3047 3047 3048 3050 3052 3054 3055 3055 3055 3056 3056 3057 3057 3058 3060 3061 3062 3063 3065 3066 3067 3068 3068 3068 3069 3070 3070 3071 3071 3072 3073 3073 3075 3076 3076 3076 3076 3076 3076 3075 3075 3074 3075 3077 3078 3078 3078 3078 3078 3078 3079 3081 3082 3084 3088 3090 3091 3091 3090 3090 3091 3092 3094 3094 3094 3094 3094 3094 3095 3096 3095 3095 3096 3097 3098 3097 3097 3097
3035 3037 3038 3039 3040 3041 3041 3042 3043 3043 3044 3045 3046 3047 3049 3049 3049 3050 3051 3051 3052 3053 3054 3056 3057 3058 3059 3060 3061 3061 3061 3062 3062 3063 3063 3064 3065 3065 3066 3067 3068 3069 3068 3068 3067 3067 3067 3067 3067 3067 3068 3069 3070 3070 3070 3070 3071 3073 3075 3076 3077 3078 3080 3082 3082 3082 3082 3083 3084 3086 3086 3086 3086 3087 3087 3088 3089 3090 3090 3090 3090 3091 3091 3090 3090
3030 3032 3033 3034 3035 3035 3036 3037 3038 3038 3038 3039 3040 3041 3042 3043 3044 3044 3045 3046 3047 3047 3048 3049 3050 3051 3052 3053 3054 3054 3055 3055 3055 3056 3056 3057 3058 3058 3059 3059 3060 3060 3060 3060 3059 3059 3059 3060 3060 3060 3060 3060 3061 3062 3062 3062 3063 3066 3068 3069 3070 3070 3071 3072 3072 3072 3073 3075 3075 3076 3077 3078 3079 3079 3079 3081 3082 3084 3084 3084 3084 3084 3084 3084 3083
3025 3027 3028 3029 3030 3030 3031 3032 3033 3033 3033 3034 3034 3035 3036 3037 3038 3039 3039 3040 3041 3041 3042 3043 3043 3044 3045 3046 3047 3047 3048 3048 3049 3049 3050 3050 3050 3051 3051 3052 3052 3052 3051 3051 3051 3051 3051 3052 3052 3052 3053 3053 3053 3053 3054 3054 3056 3057 3060 3062 3063 3063 3062 3062 3062 3062 3064 3065 3066 3067 3069 3070 3071 3071 3072 3074 3076 3077 3078 3079 3078 3077 3077 3077 3076
3020 3022 3023 3024 3025 3025 3026 3027 3028 3028 3029 3029 3029 3030 3030 3031 3032 3032 3033 3034 3034 3035 3036 3036 3037 3038 3039 3040 3040 3041 3041 3042 3042 3042 3043 3043 3043 3044 3044 3044 3044 3044 3043 3043 3043 3044 3044 3044 3044 3045 3045 3045 3045 3046 3046 3047 3048 3050 3052 3054 3054 3054 3054 3053 3053 3054 3055 3056 3058 3060 3062 3062 3062 3063 3065 3067 3070 3071 3072 3072 3072 3072 3071 3071 3070
3016 3017 3018 3019 3020 3021 3022 3022 3023 3024 3024 3024 3025 3025 3025 3026 3026 3027 3027 3028 3028 3028 3029 3030 3031 3032 3033 3033 3034 3034 3035 3035 3035 3035 3036 3036 3036 3036 3036 3036 3036 3036 3036 3036 3036 3036 3036 3036 3036 3037 3037 3037 3038 3038 3039 3040 3042 3044 3045 3046 3045 3045 3045 3045 3045 3046 3048 3049 3050 3052 3054 3055 3055 3057 3059 3061 3063 3064 3065 3066 3067 3067 3067 3066 3066
3011 3012 3014 3015 3016 3017 3018 3018 3019 3019 3020 3020 3020 3020 3020 3021 3021 3021 3022 3022 3022 3022 3023 3024 3025 3026 3027 3027 3028 3028 3028 3028 3028 3028 3028 3028 3028 3028 3028 3028 3028 3028 3028 3028 3028 3028 3028 3028 3028 3029 3029 3030 3030 3031 3032 3033 3034 3036 3038 3038 3038 3037 3038 3038 3038 3038 3040 3041 3043 3044 3046 3047 3049 3051 3053 3054 3055 3056 3058 3059 3060 3061 3061 3060 3060